Location: Lachepaillet
(43.4918°N, 1.4874°W)
Time: 23:33:36
(UTC+00:00)

Cosmos 2227 Rocket - Pass Details

Date: 15 May 2026
Orbit: 838 x 844 km, 71.0° (Epoch: 11 June)

Event Time Altitude Azimuth Distance (km) Brightness Sun altitude
Exits shadow 22:56:01 12° 84° (E) 2,332 4.4 -25.6°
Drops below altitude 10° 22:57:10 10° 72° (ENE) 2,467 4.6 -25.7°
Sets 23:01:09 0° 45° (NE) 3,409 5.7 -25.9°
